Burlington, IA

3:07 AM CST on February 13, 2016 (GMT -0600)
Burlington Regional

Weather History for KBRL - August, 2013

Change the Weather History Date:

Thursday, August 8, 2013

  Actual Average Record
Temperature  
Mean Temperature 73 °F 76 °F  
Max Temperature 82 °F 86 °F 110 °F (1934)
Min Temperature 64 °F 66 °F 51 °F (1989)
Degree Days  
Heating Degree Days 0 0  
Month to date heating degree days 0 0  
Since 1 June heating degree days 23 14  
Since 1 July heating degree days 8 1  
Cooling Degree Days 8 11  
Month to date cooling degree days 66 88  
Year to date cooling degree days 670 817  
Since 1 June cooling degree days 571 714  
Growing Degree Days 22 (Base 50)    
Moisture  
Dew Point 64 °F    
Average Humidity 76    
Maximum Humidity 93    
Minimum Humidity 58    
Precipitation  
Precipitation 0.00 in 0.13 in 1.61 in (1988)
Month to date precipitation T 1.01  
Year to date precipitation 27.06 23.99  
Sea Level Pressure  
Sea Level Pressure 29.97 in    
Wind  
Wind Speed 6 mph (NNE)    
Max Wind Speed 14 mph    
Max Gust Speed 16 mph    
Visibility 10 miles    
Events      
T = Trace of Precipitation, MM = Missing Value Source: NWS Daily Summary

Daily Weather History Graph

Daily Weather History Graph

Search for Another Location

Airport or City:

Trip Planner

Search our weather history database for the weather conditions in past years. The results will help you decide how hot, cold, wet, or windy it might be!

Date:

Astronomy

Aug. 08, 2013 Rise Set
Actual Time 6:08 AM CDT 8:11 PM CDT
Civil Twilight 5:38 AM CDT 8:41 PM CDT
Nautical Twilight 5:01 AM CDT 9:18 PM CDT
Astronomical Twilight 4:21 AM CDT 9:57 PM CDT
Moon 7:56 AM CDT (8/8) 8:48 PM CDT (8/8)
Length of Visible Light 15h 03m
Length of Day
14h 03m
Waxing Crescent, 3% of the Moon is Illuminated
Aug 8
Waxing Crescent
Aug 14
First Quarter
Aug 20
Full
Aug 28
Last Quarter
Sep 5
New

Hourly Weather History & Observations

Time (CDT) Temp. Heat Index Dew Point Humidity Pressure Visibility Wind Dir Wind Speed Gust Speed Precip Events Conditions
12:53 AM 66.9 °F - 63.0 °F 87% 29.96 in 10.0 mi NNE 5.8 mph - N/A   Clear
1:53 AM 66.0 °F - 63.0 °F 90% 29.97 in 10.0 mi North 4.6 mph - N/A   Clear
2:53 AM 64.9 °F - 62.1 °F 90% 29.97 in 10.0 mi NNW 4.6 mph - N/A   Partly Cloudy
3:53 AM 64.9 °F - 62.1 °F 90% 29.96 in 10.0 mi North 6.9 mph - N/A   Clear
4:53 AM 64.9 °F - 61.0 °F 87% 29.94 in 10.0 mi NNE 8.1 mph - N/A   Mostly Cloudy
5:53 AM 66.0 °F - 61.0 °F 84% 29.95 in 10.0 mi NNE 9.2 mph - N/A   Overcast
6:09 AM 66.2 °F - 60.8 °F 83% 29.97 in 10.0 mi NNE 8.1 mph - N/A   Mostly Cloudy
6:53 AM 66.0 °F - 61.0 °F 84% 29.97 in 10.0 mi North 5.8 mph - N/A   Scattered Clouds
7:53 AM 69.1 °F - 63.0 °F 81% 29.97 in 10.0 mi NE 9.2 mph - N/A   Clear
8:53 AM 71.1 °F - 63.0 °F 75% 29.97 in 10.0 mi ENE 6.9 mph - N/A   Clear
9:53 AM 73.0 °F - 63.0 °F 71% 29.99 in 10.0 mi East 5.8 mph - N/A   Clear
10:53 AM 75.0 °F - 64.0 °F 69% 30.00 in 10.0 mi NE 5.8 mph - N/A   Scattered Clouds
11:53 AM 75.9 °F - 64.0 °F 67% 29.98 in 10.0 mi East 5.8 mph - N/A   Clear
12:53 PM 79.0 °F - 66.0 °F 64% 29.96 in 10.0 mi NNE 5.8 mph - N/A   Partly Cloudy
1:53 PM 80.1 °F 81.9 °F 64.9 °F 60% 29.96 in 10.0 mi NNE 10.4 mph - N/A   Scattered Clouds
2:53 PM 80.1 °F 81.9 °F 64.9 °F 60% 29.95 in 10.0 mi Variable 5.8 mph - N/A   Clear
3:53 PM 81.0 °F 82.7 °F 64.9 °F 58% 29.95 in 10.0 mi NNE 5.8 mph - N/A   Clear
4:53 PM 79.0 °F - 64.0 °F 60% 29.96 in 10.0 mi NNE 8.1 mph - N/A   Clear
5:53 PM 78.1 °F - 64.0 °F 62% 29.96 in 10.0 mi NNE 6.9 mph - N/A   Clear
6:53 PM 77.0 °F - 64.9 °F 66% 29.96 in 10.0 mi NE 5.8 mph - N/A   Clear
7:53 PM 75.9 °F - 66.0 °F 71% 29.97 in 10.0 mi NNE 4.6 mph - N/A   Clear
8:53 PM 73.0 °F - 66.0 °F 79% 29.97 in 10.0 mi NNE 4.6 mph - N/A   Clear
9:53 PM 70.0 °F - 66.0 °F 87% 29.98 in 10.0 mi Calm Calm - N/A   Clear
10:53 PM 70.0 °F - 66.0 °F 87% 29.99 in 10.0 mi Calm Calm - N/A   Clear
11:53 PM 66.9 °F - 64.0 °F 90% 30.00 in 10.0 mi Calm Calm - N/A   Clear